Location: Lecco
(45.8566°N, 9.3977°E)
Time: 05:15:15
(UTC+02:00)

S-56A Canister/Altair - Visible Passes

Search period start: 08 August 2020 00:00
Search period end: 18 August 2020 00:00
Orbit: 633 x 2499 km, 38.9° (Epoch: 07 August)

Date Brightness Start Highest point End Pass type
(mag) Time Alt. Az. Time Alt. Az. Time Alt. Az.
12 Aug 10.2 05:19:31 10° SSE 05:21:49 12° SE 05:24:23 10° ESE visible
15 Aug 9.6 05:41:46 10° SSW 05:46:18 25° SSE 05:52:16 10° E visible
16 Aug 9.6 05:09:51 10° SSW 05:13:48 21° SE 05:18:44 10° E visible
17 Aug 9.5 04:38:38 12° S 04:41:19 17° SE 04:45:09 10° ESE visible
